STARLINK-1131 (45047 NORAD) Tracking and Keplerian Element Data

This shows tracking and keplerian element data for the satellite.

Feedback or suggestion? Click here.




ElementValue
Catalog45047
NameSTARLINK-1131
Epoch Orbit401
Epoch Day52.91667824
Epoch Year2020
RAAN120.8844
Inclination52.9973
Eccentricity0.0001503
Argument of Perigee53.0263
Mean Anonmoly140.0504
Mean Motion15.50699483
Decay Rate0.00475012
L11 45047U 20006D 20052.91667824 .00475012 00000-0 76551-2 0 9995
L22 45047 52.9973 120.8844 0001503 53.0263 140.0504 15.50699483 4011

Live tracking and technical data element details for STARLINK-1131 (NORAD 45047). STARLINK-1131 can be tracked NOW for your location showing map with azimuth and elevation plus other details from your city location.

Track the satellite on the map from your city or location and see movement details for azimuth, elevation, latitude, longitude, range, height, and movement on the map or in text.







IsCatalogInMostPopularTable: catalog: 45047, numindb: 5
Update: records affected: 1



GetName: 45047 STARLINK-1131

Hit Count: updated at: Mon, 24 Feb 2020 18:56:49 GMT